Location: *
(45.0500°N, 12.0500°E)
Time: 16:50:06
(UTC+00:00)

DMSP B5D2-2 - Pass Details

Date: 09 April 2020
Orbit: 791 x 805 km, 98.3° (Epoch: 01 June)

Event Time Altitude Azimuth Distance (km) Brightness Sun altitude
Rises 18:59:06 0° 18° (NNE) 3,304 7.4 -12.3°
Reaches altitude 10° 19:01:31 10° 24° (NNE) 2,371 6.6 -12.7°
Maximum altitude 19:06:36 50° 99° (E) 1,012 4.2 -13.5°
Drops below altitude 10° 19:11:40 10° 175° (S) 2,363 6.2 -14.3°
Sets 19:14:03 0° 180° (S) 3,291 7.0 -14.7°
